User: anonymous   Login
Location: Pleiades Observatory
(40.1297°N, 91.5238°W)
Time: 12:46:07
(UTC-05:00)
Language:

Cosmos 1842 Rocket - Orbit

View from above orbital plane
View from above orbital plane
View from above satellite
View from above satellite

Ground track
Ground track

The orbit data is extracted from the following two-line orbital elements,

1 17912U 87038B   15086.50392630  .00000631  00000-0  75095-4 0  9994
2 17912 082.4994 092.7412 0021196 030.5565 329.6879 14.82650918507297
Epoch (UTC): 27 March 2015 12:05:39
Eccentricity: 0.0021196
inclination: 82.4994°
perigee height: 606 km
apogee height: 636 km
right ascension of ascending node: 92.7412°
argument of perigee: 30.5565°
revolutions per day: 14.82650918
mean anomaly at epoch: 329.6879°
orbit number at epoch: 50729

The dashed part of the orbit path shows where the satellite is in the earth's shadow,  

DLR